EHI
0 0 0 0 0 0 0 0 0 0 0 0 0 0 0 0 0 0 0 0 0 0 0 0 0 0 0 0 0 0 0 0 0 0 0 0 0 0
0 0 0 0 0 0 0 0 0 0 0 0 0 0 0 0 0 0 0 0 0 0 0 0 0 0 0 0 0 0 0 0 0 0 0 0 0 0
0 0 0 0 0 0 0 0 0 0 0 0 0 0 0 0 0 0 0 0 0 0 0 0 0 0 0 0 0 0 0 0 0 0 0 0 0 0
0 0 0 0 0 0 0 0 0 0 0 0 0 0 0 0 0 0 0 0 0 0 0 0 0 0 0 0 0 0 0 0 0 0 0 0 0 0
0 0 0 0 0 0 0 0 0 0 0 0 0 0 0 0 0 0 0 0 0 0 0 0 0 0 0 0 0 0 0 0 0 0 0 0 0 0
0 0 0 0 0 0 0 0 0 0 0 0 0 0 0 0 0 0 0 0 0 0 0 0 0 0 0 0 0 0 0 0 0 0 0 0 0 0
0 0 0 0 0 0 0 0 0 0 0 0 0 0 0 0 0 0 0 0 0 0 0 0 0 0 0 0 0 0 0 0 0 0 0 0 0 0
0 0 0 0 0 0 0 0 0 0 0 0 0 0 0 0 0 0 0 0 0 0 0 0 0 0 0 0 0 0 0 0 0 0 0 0 0 0
0 0 0 0 0 0 0 0 0 0 0 0 0 0 0 0 0 0 0 0 0 0 0 0 0 0 0 0 0 0 0 0 0 0 0 0 0 0
0 0 0 0 0 0 0 0 0 0 0 0 0 0 0 0 0 0 0 0 0 0 0 0 0 0 0 0 0 0 0 0 0 0 0 0 0 0
0 0 0 0 0 0 0 0 0 0 0 0 0 0 0 0 0 0 0 0 0 0 0 0 0 0 0 0 0 0 0 0 0 0 0 0 0 0
0 0 0 0 0 0 0 0 0 0 0 0 0 0 0 0 0 0 0 0 0 0 0 0 0 0 0 0 0 0 0 0 0 0 0 0 0 0
0 0 0 0 0 0 0 0 0 0 0 0 0 0 0 0 0 0 0 0 0 0 0 0 0 0 0 0 0 0 0 0 0 0 0 0 0 0
0 0 0 0 0 0 0 0 0 0 0 0 0 0 0 0 0 0 0 0 0 0 0 0 0 0 0 0 0 0 0 0 0 0 0 0 0 0
0 0 0 0 0 0 0 0 0 0 0 0 0 0 0 0 0 0 0 0 0 0 0 0 0 0 0 0 0 0 0 0 0 0 0 0 0 0
0 0 0 0 0 0 0 0 0 0 0 0 0 0 0 0 0 0 0 0 0 0 0 0 0 0 0 0 0 0 0 0 0 0 0 0 0 0
0 0 0 0 0 0 0 0 0 0 0 0 0 0 0 0 0 0 0 0 0 0 0 0 0 0 0 0 0 0 0 0 0 0 0 0 0 0
0 0 0 0 0 0 0 0 0 0 0 0 0 0 0 0 0 0 0 0 0 0 0 0 0 0 0 0 0 0 0 0 0 0 0 0 0 0
0 0 0 0 0 0 0 0 0 0 0 0 0 0 0 0 0 0 0 0 0 0 0 0 0 0 0 0 0 0 0 0 0 0 0 0 0 0
0 0 0 0 0 0 0 0 0 0 0 0 0 0 0 0 0 0 0 0 0 0 0 0 0 0 0 0 0 0 0 0 0 0 0 0 0 0
0 0 0 0 0 0 0 0 0 0 0 0 0 0 0 0 0 0 0 0 0 0 0 0 0 0 0 0 0 0 0 0 0 0 0 0 0 0
0 0 0 0 0 0 0 0 0 0 0 0 0 0 0 0 0 0 0 0 0 0 0 0 0 0 0 0 0 0 0 0 0 0 0 0 0 0
0 0 0 0 0 0 0 0 0 0 0 0 0 0 0 0 0 0 0 0 0 0 0 0 0 0 0 0 0 0 0 0 0 0 0 0 0 0
Wind_Speed
2 3 3 3 3 4 4 5 6 8 8 7 6 7 9 9 12 12 13 16 19 20 20 21 21 22 22 22 22 22 22 22 22 23 24 24 25 24
2 3 3 3 3 3 4 4 5 7 8 8 8 10 11 10 13 13 13 17 17 18 20 21 21 21 21 21 21 22 22 22 23 24 24 25 25 24
2 3 4 4 4 4 4 4 5 6 9 9 9 10 13 13 12 12 12 12 11 16 19 20 21 20 20 21 21 21 22 22 23 24 25 25 24 24
3 3 4 4 5 4 4 5 5 6 8 11 10 10 12 12 12 13 11 10 10 15 18 19 19 20 20 20 20 21 21 21 22 23 24 23 22 22
3 4 4 4 5 5 6 5 5 6 7 9 10 9 9 10 12 12 12 10 11 12 15 16 18 19 19 19 20 20 20 20 21 21 22 22 21 20
3 4 4 4 5 6 5 6 6 7 7 8 9 9 9 10 10 10 11 10 10 11 11 14 15 17 17 18 19 19 19 19 20 21 21 21 20 19
3 4 4 5 7 6 6 6 6 6 6 7 8 9 9 10 10 9 11 11 11 8 10 10 10 9 11 13 15 18 19 20 20 20 20 20 19 17
3 4 4 5 6 7 9 9 8 7 8 7 7 9 11 11 10 10 10 11 9 8 10 11 9 9 9 9 15 19 19 20 20 20 20 20 18 15
3 4 4 4 6 5 6 8 8 9 9 8 9 10 11 11 11 12 11 11 11 10 10 10 9 9 9 10 16 18 18 19 19 19 18 18 17 15
3 4 4 5 5 6 6 7 7 7 8 7 8 9 9 10 10 10 11 11 10 7 8 9 9 9 9 9 13 16 18 19 18 18 18 17 15 14
3 4 4 5 6 8 6 7 8 7 7 9 11 11 13 13 11 8 8 8 9 7 6 7 8 10 9 7 9 15 17 17 17 17 17 16 15 13
3 3 4 5 7 7 6 6 7 8 8 9 9 9 9 9 10 8 7 7 8 7 6 7 7 8 7 6 8 9 10 13 16 16 16 16 15 8
3 3 3 6 7 8 7 5 7 9 8 7 7 7 7 6 7 7 6 6 7 7 7 7 7 7 6 8 8 8 8 9 9 10 12 14 14 10
3 3 4 6 7 7 6 7 9 8 5 5 6 6 6 6 7 7 8 7 7 8 9 8 6 7 7 8 8 8 8 8 8 8 8 11 11 12
3 5 6 7 6 5 6 8 7 4 5 5 6 6 6 7 7 7 8 8 8 7 6 7 6 6 6 6 7 8 8 7 7 7 7 7 7 7
3 4 5 5 4 5 5 4 4 4 5 5 6 6 6 6 6 6 7 7 7 6 6 8 7 7 6 7 6 7 7 6 7 8 7 6 6 5
3 3 3 3 3 3 4 4 4 4 5 5 5 5 5 6 6 6 6 6 6 7 8 7 7 6 6 6 5 6 6 6 6 7 6 6 5 5
3 2 3 3 3 4 4 4 4 5 5 5 5 5 5 6 6 6 6 6 6 7 7 8 8 7 4 3 3 5 6 6 7 7 6 5 5 5
2 2 3 3 4 4 4 4 5 5 5 5 5 5 5 5 6 6 6 6 6 7 7 7 6 6 7 7 6 5 6 7 7 6 6 5 5 6
2 2 3 3 4 4 4 4 5 5 5 5 5 5 5 5 6 6 6 7 7 7 7 6 6 6 5 6 6 6 8 6 6 6 6 5 4 4
2 3 3 3 4 4 4 4 5 5 5 5 5 5 5 5 5 6 6 8 7 6 7 7 6 9 6 4 4 5 6 7 6 5 5 4 4 4
3 3 3 4 4 4 4 4 4 4 5 5 5 5 5 5 6 7 6 6 6 6 7 6 6 5 4 4 5 6 6 7 7 8 7 5 3 3
3 4 4 4 4 4 4 4 5 5 5 5 5 5 5 5 5 5 6 6 5 6 6 6 5 4 4 4 5 5 7 7 5 6 6 9 8 7
Wind_Direction
281 284 286 287 285 285 287 287 292 301 305 309 314 315 318 315 317 314 313 318 318 317 317 316 316 316 315 314 313 311 310 310 307 304 301 298 295 291
286 288 290 291 289 288 289 288 285 288 291 303 309 313 316 313 317 315 315 316 313 316 317 317 317 317 317 316 316 314 312 311 309 307 304 300 296 292
285 289 293 296 296 296 296 291 290 289 288 299 306 312 315 317 318 318 316 315 314 317 317 318 319 319 318 318 317 316 314 313 311 309 306 302 297 293
290 292 294 298 298 299 296 295 294 294 293 300 308 314 316 319 319 319 319 316 314 317 317 318 317 318 319 319 319 317 316 314 313 311 310 308 301 297
293 293 297 300 299 301 299 298 298 299 297 298 306 313 314 320 321 319 318 317 317 317 317 318 319 320 319 319 320 320 319 318 318 317 317 315 311 306
303 298 298 299 300 305 302 304 306 304 303 302 306 313 317 321 321 322 322 323 318 316 318 319 318 319 319 321 321 323 324 324 323 322 321 319 314 309
307 303 302 305 307 309 309 310 310 306 307 307 311 315 319 325 326 323 318 318 314 317 320 318 318 318 320 321 323 328 329 329 329 327 326 324 320 313
304 307 305 300 306 305 309 311 310 307 309 310 309 313 317 321 322 319 317 318 316 324 319 313 315 315 318 319 327 330 330 331 331 331 332 333 331 327
304 307 310 312 311 312 313 311 307 308 308 306 304 310 313 318 318 316 315 313 306 311 312 304 313 314 317 320 326 330 333 332 333 334 337 339 340 339
306 305 305 309 322 326 317 315 312 313 314 309 305 308 312 314 313 308 307 305 300 303 312 304 314 315 316 315 325 333 337 339 338 338 341 344 347 347
315 310 309 311 327 329 317 313 314 319 321 318 316 314 315 317 321 317 317 318 315 315 324 311 313 316 312 312 326 334 336 341 345 347 348 351 354 353
322 315 312 322 327 325 315 314 317 323 326 324 323 324 322 325 329 321 316 313 314 313 332 326 317 325 316 314 327 331 334 339 341 346 350 354 355 356
317 318 319 330 326 324 321 316 321 321 318 320 321 325 328 330 330 326 320 310 307 301 314 321 312 317 308 310 318 328 334 336 336 342 349 358 0 2
308 313 322 327 323 323 326 332 331 326 319 321 323 327 330 330 327 325 320 313 303 298 307 311 303 312 313 313 316 326 332 336 339 342 347 352 358 3
312 319 321 324 322 321 337 338 334 327 324 323 323 325 325 321 320 321 322 321 316 312 312 314 310 311 311 309 314 321 324 330 340 343 346 350 350 350
322 318 321 327 326 327 333 336 333 328 323 318 319 320 323 325 327 330 329 329 326 326 327 329 325 316 312 311 311 317 324 326 334 339 340 346 350 352
328 317 320 328 337 337 336 335 333 330 327 323 322 324 328 329 330 331 330 329 327 329 331 334 332 323 311 311 314 322 327 330 333 336 337 345 352 356
322 311 320 327 327 325 327 329 329 330 327 325 324 325 328 328 328 330 331 330 328 329 330 332 332 331 328 327 326 318 328 330 332 339 341 342 354 1
322 312 316 320 321 321 322 322 323 324 324 322 322 325 327 326 325 328 330 329 328 329 330 332 335 337 342 342 335 341 331 330 333 343 350 354 358 359
318 309 311 314 315 317 318 319 320 322 323 321 321 324 326 325 325 327 328 328 328 328 331 336 339 337 327 318 315 324 338 333 335 342 347 356 4 1
311 308 307 308 308 310 313 313 314 315 317 317 319 322 323 324 324 325 325 328 328 330 331 332 327 323 308 305 316 331 342 351 349 340 337 346 360 12
307 305 306 307 307 307 308 309 311 312 313 312 317 321 322 322 322 324 326 328 329 328 325 324 327 333 339 341 338 337 341 347 0 8 10 12 1 6
306 304 302 303 302 303 304 305 307 308 309 312 316 320 323 325 324 323 326 327 328 330 331 334 340 343 339 335 339 343 347 350 359 16 27 29 36 37